• în România
  • Lista ţărilor
  • Pe 7 zile
  • Temperatura apei
  • Hartă satelitară
  • Meteo pe hartă
  • Widget-uri
  • user-avatar
    Intrare

    Meteo pe oră la Sankt Polten

    Astăzi, 22 Mai, Marţi

    Timp Temperatura Precipitaţii Vânt Presiune Umiditate
    00:00 +13°C° 0 mm 2 m/s 734 mmHg 89%
    01:00 +13°C° 0 mm 1 m/s 734 mmHg 91%
    02:00 +12°C° 0 mm 1 m/s 734 mmHg 91%
    03:00 +12°C° 0 mm 1 m/s 734 mmHg 92%
    04:00 +12°C° 0 mm 1 m/s 734 mmHg 92%
    05:00 +13°C° 0 mm 1 m/s 734 mmHg 86%
    06:00 +15°C° 0 mm 1 m/s 734 mmHg 81%
    07:00 +18°C° 0 mm 1 m/s 734 mmHg 75%
    08:00 +20°C° 0 mm 1 m/s 734 mmHg 69%
    09:00 +21°C° 0 mm 2 m/s 734 mmHg 63%
    10:00 +24°C° 0 mm 2 m/s 734 mmHg 56%
    11:00 +25°C° 0 mm 2 m/s 734 mmHg 54%
    12:00 +26°C° 0 mm 2 m/s 734 mmHg 51%
    13:00 +27°C° 0 mm 2 m/s 734 mmHg 48%
    14:00 +26°C° 0,1 mm 2 m/s 734 mmHg 51%
    15:00 +26°C° 0,1 mm 2 m/s 734 mmHg 55%
    16:00 +25°C° 0,1 mm 2 m/s 733 mmHg 58%
    17:00 +24°C° 0,1 mm 2 m/s 733 mmHg 65%
    18:00 +21°C° 0,1 mm 2 m/s 733 mmHg 72%
    19:00 +20°C° 0,1 mm 2 m/s 733 mmHg 79%
    20:00 +18°C° 0 mm 2 m/s 734 mmHg 83%
    21:00 +17°C° 0 mm 2 m/s 734 mmHg 86%
    22:00 +16°C° 0 mm 1 m/s 734 mmHg 90%
    23:00 +15°C° 0 mm 1 m/s 734 mmHg 91%

    Mâine, 23 Mai, Miercuri

    Timp Temperatura Precipitaţii Vânt Presiune Umiditate
    00:00 +15°C° 0 mm 1 m/s 734 mmHg 93%
    01:00 +15°C° 0 mm 1 m/s 735 mmHg 94%
    02:00 +14°C° 0 mm 1 m/s 735 mmHg 94%
    03:00 +14°C° 0 mm 1 m/s 735 mmHg 95%
    04:00 +14°C° 0 mm 1 m/s 735 mmHg 95%
    05:00 +15°C° 0 mm 1 m/s 735 mmHg 90%
    06:00 +16°C° 0 mm 0 m/s 736 mmHg 86%
    07:00 +17°C° 0 mm 0 m/s 736 mmHg 82%
    08:00 +21°C° 0 mm 1 m/s 736 mmHg 77%
    09:00 +22°C° 0 mm 1 m/s 736 mmHg 73%
    10:00 +23°C° 0 mm 1 m/s 737 mmHg 68%
    11:00 +24°C° 0,1 mm 1 m/s 737 mmHg 67%
    12:00 +24°C° 0,1 mm 1 m/s 736 mmHg 65%
    13:00 +25°C° 0,1 mm 1 m/s 736 mmHg 64%
    14:00 +25°C° 0,3 mm 1 m/s 736 mmHg 64%
    15:00 +25°C° 0,3 mm 1 m/s 736 mmHg 65%
    16:00 +25°C° 0,3 mm 1 m/s 736 mmHg 66%
    17:00 +24°C° 0,5 mm 1 m/s 736 mmHg 72%
    18:00 +22°C° 0,5 mm 1 m/s 736 mmHg 79%
    19:00 +21°C° 0,5 mm 1 m/s 736 mmHg 85%
    20:00 +20°C° 0,5 mm 1 m/s 737 mmHg 88%
    21:00 +19°C° 0,5 mm 1 m/s 737 mmHg 91%
    22:00 +18°C° 0,5 mm 1 m/s 737 mmHg 95%
    23:00 +18°C° 0,2 mm 1 m/s 737 mmHg 95%

    Poimâine, 24 Mai, Joi

    Timp Temperatura Precipitaţii Vânt Presiune Umiditate
    00:00 +18°C° 0,2 mm 1 m/s 737 mmHg 96%
    01:00 +16°C° 0,2 mm 1 m/s 737 mmHg 96%
    02:00 +16°C° 0,3 mm 1 m/s 737 mmHg 96%
    03:00 +16°C° 0,3 mm 1 m/s 737 mmHg 96%
    04:00 +15°C° 0,3 mm 1 m/s 737 mmHg 97%
    05:00 +16°C° 0,3 mm 1 m/s 737 mmHg 94%
    06:00 +19°C° 0,3 mm 1 m/s 738 mmHg 92%
    07:00 +20°C° 0,3 mm 1 m/s 738 mmHg 89%
    08:00 +20°C° 0,1 mm 2 m/s 738 mmHg 83%
    09:00 +23°C° 0,1 mm 2 m/s 738 mmHg 77%
    10:00 +24°C° 0,1 mm 2 m/s 738 mmHg 72%
    11:00 +25°C° 0,4 mm 2 m/s 738 mmHg 70%
    12:00 +25°C° 0,4 mm 2 m/s 737 mmHg 67%
    13:00 +26°C° 0,4 mm 3 m/s 737 mmHg 65%
    14:00 +26°C° 0,5 mm 3 m/s 737 mmHg 67%
    15:00 +25°C° 0,5 mm 3 m/s 737 mmHg 70%
    16:00 +25°C° 0,5 mm 2 m/s 736 mmHg 72%
    17:00 +24°C° 0,2 mm 2 m/s 737 mmHg 78%
    18:00 +21°C° 0,2 mm 2 m/s 737 mmHg 83%
    19:00 +20°C° 0,2 mm 2 m/s 737 mmHg 89%
    20:00 +19°C° 0,2 mm 2 m/s 737 mmHg 91%
    21:00 +18°C° 0,2 mm 2 m/s 737 mmHg 93%
    22:00 +17°C° 0,2 mm 2 m/s 738 mmHg 95%
    23:00 +18°C° 0,1 mm 1 m/s 738 mmHg 96%

    25 Mai, Vineri

    Timp Temperatura Precipitaţii Vânt Presiune Umiditate
    00:00 +16°C° 0,1 mm 1 m/s 738 mmHg 96%
    01:00 +16°C° 0,1 mm 1 m/s 738 mmHg 97%
    02:00 +16°C° 0 mm 1 m/s 738 mmHg 97%
    03:00 +15°C° 0 mm 1 m/s 738 mmHg 97%
    04:00 +15°C° 0 mm 1 m/s 738 mmHg 97%
    05:00 +16°C° 0,1 mm 1 m/s 738 mmHg 94%
    06:00 +18°C° 0,1 mm 1 m/s 738 mmHg 91%
    07:00 +18°C° 0,1 mm 0 m/s 738 mmHg 89%
    08:00 +21°C° 0,1 mm 1 m/s 738 mmHg 84%
    09:00 +22°C° 0,1 mm 1 m/s 738 mmHg 79%
    10:00 +24°C° 0,1 mm 1 m/s 739 mmHg 75%
    11:00 +24°C° 0,3 mm 1 m/s 738 mmHg 72%
    12:00 +25°C° 0,3 mm 1 m/s 738 mmHg 68%
    13:00 +26°C° 0,3 mm 1 m/s 738 mmHg 65%
    14:00 +26°C° 0,3 mm 1 m/s 738 mmHg 66%
    15:00 +26°C° 0,3 mm 2 m/s 738 mmHg 67%
    16:00 +26°C° 0,3 mm 2 m/s 738 mmHg 68%
    17:00 +25°C° 0,2 mm 2 m/s 738 mmHg 74%
    18:00 +23°C° 0,2 mm 1 m/s 738 mmHg 79%
    19:00 +22°C° 0,2 mm 1 m/s 738 mmHg 85%
    20:00 +21°C° 0,7 mm 1 m/s 738 mmHg 88%
    21:00 +20°C° 0,7 mm 1 m/s 738 mmHg 90%
    22:00 +19°C° 0,7 mm 1 m/s 739 mmHg 93%
    23:00 +19°C° 0,5 mm 1 m/s 739 mmHg 93%

    26 Mai, Sâmbătă

    Timp Temperatura Precipitaţii Vânt Presiune Umiditate
    00:00 +18°C° 0,5 mm 1 m/s 739 mmHg 93%
    01:00 +18°C° 0,5 mm 1 m/s 739 mmHg 93%
    02:00 +18°C° 0,4 mm 1 m/s 739 mmHg 93%
    03:00 +18°C° 0,4 mm 1 m/s 739 mmHg 94%
    04:00 +16°C° 0,4 mm 1 m/s 739 mmHg 94%
    05:00 +18°C° 0,3 mm 1 m/s 739 mmHg 91%
    06:00 +20°C° 0,3 mm 1 m/s 740 mmHg 88%
    07:00 +21°C° 0,3 mm 1 m/s 740 mmHg 85%
    08:00 +22°C° 0,2 mm 1 m/s 740 mmHg 80%
    09:00 +23°C° 0,2 mm 1 m/s 740 mmHg 75%
    10:00 +25°C° 0,2 mm 2 m/s 740 mmHg 70%
    11:00 +26°C° 0,4 mm 2 m/s 740 mmHg 66%
    12:00 +26°C° 0,4 mm 2 m/s 740 mmHg 63%
    13:00 +27°C° 0,4 mm 2 m/s 740 mmHg 59%
    14:00 +27°C° 0,4 mm 2 m/s 740 mmHg 61%
    15:00 +27°C° 0,4 mm 2 m/s 740 mmHg 63%
    16:00 +27°C° 0,4 mm 2 m/s 740 mmHg 64%
    17:00 +25°C° 0,1 mm 2 m/s 740 mmHg 70%
    18:00 +24°C° 0,1 mm 2 m/s 740 mmHg 76%
    19:00 +23°C° 0,1 mm 1 m/s 740 mmHg 82%
    20:00 +22°C° 0 mm 1 m/s 740 mmHg 85%
    21:00 +20°C° 0 mm 1 m/s 740 mmHg 87%
    22:00 +19°C° 0 mm 1 m/s 741 mmHg 90%
    23:00 +19°C° 0 mm 1 m/s 741 mmHg 91%

    27 Mai, Duminică

    Timp Temperatura Precipitaţii Vânt Presiune Umiditate
    00:00 +18°C° 0 mm 1 m/s 741 mmHg 92%
    01:00 +18°C° 0 mm 1 m/s 741 mmHg 92%
    02:00 +18°C° 0 mm 1 m/s 741 mmHg 93%
    03:00 +16°C° 0 mm 1 m/s 741 mmHg 93%
    04:00 +16°C° 0 mm 1 m/s 741 mmHg 93%
    05:00 +19°C° 0 mm 1 m/s 741 mmHg 89%
    06:00 +20°C° 0 mm 1 m/s 741 mmHg 84%
    07:00 +22°C° 0 mm 1 m/s 741 mmHg 79%
    08:00 +24°C° 0 mm 1 m/s 741 mmHg 73%
    09:00 +25°C° 0 mm 2 m/s 741 mmHg 66%
    10:00 +27°C° 0 mm 2 m/s 741 mmHg 59%
    11:00 +27°C° 0,1 mm 2 m/s 741 mmHg 57%
    12:00 +28°C° 0,1 mm 2 m/s 741 mmHg 55%
    13:00 +29°C° 0,1 mm 3 m/s 741 mmHg 54%
    14:00 +28°C° 0,2 mm 3 m/s 740 mmHg 56%
    15:00 +28°C° 0,2 mm 2 m/s 740 mmHg 58%
    16:00 +28°C° 0,2 mm 2 m/s 740 mmHg 59%
    17:00 +26°C° 0,1 mm 2 m/s 740 mmHg 67%
    18:00 +25°C° 0,1 mm 2 m/s 740 mmHg 74%
    19:00 +24°C° 0,1 mm 2 m/s 740 mmHg 81%
    20:00 +21°C° 0 mm 2 m/s 740 mmHg 85%
    21:00 +21°C° 0 mm 1 m/s 740 mmHg 89%
    22:00 +20°C° 0 mm 1 m/s 740 mmHg 93%
    23:00 +19°C° 0 mm 1 m/s 740 mmHg 93%
    Arată mai mult